Time,TemperatureF,DewpointF,PressureIn,WindDirection,WindDirectionDegrees,WindSpeedMPH,WindSpeedGustMPH,Humidity,HourlyPrecipIn,Conditions,Clouds,dailyrainin,SoftwareType,DateUTC
2013-03-14 00:12:00,22.0,13.0,29.98,NNW,327,10.0,26.0,69,0.00,,,0.00,,2013-03-14 04:12:00,
2013-03-14 00:22:00,22.0,12.0,29.98,NW,313,12.0,27.0,66,0.00,,,0.00,,2013-03-14 04:22:00,
2013-03-14 00:32:00,22.0,12.0,29.98,WNW,293,19.0,27.0,65,0.00,,,0.00,,2013-03-14 04:32:00,
2013-03-14 00:42:00,22.0,12.0,29.98,WNW,293,19.0,27.0,65,0.00,,,0.00,,2013-03-14 04:42:00,
2013-03-14 00:53:00,22.0,11.0,29.99,NW,323,23.0,35.0,63,0.00,,,0.00,,2013-03-14 04:53:00,
2013-03-14 01:02:00,21.0,11.0,30.00,NNW,327,15.0,33.0,66,0.00,,,0.00,,2013-03-14 05:02:00,
2013-03-14 01:12:00,21.0,11.0,30.00,NNW,327,15.0,33.0,66,0.00,,,0.00,,2013-03-14 05:12:00,
2013-03-14 01:22:00,21.0,12.0,30.00,NW,323,12.0,25.0,67,0.00,,,0.00,,2013-03-14 05:22:00,
2013-03-14 01:33:00,21.0,12.0,30.00,NNW,333,18.0,35.0,68,0.00,,,0.00,,2013-03-14 05:33:00,
2013-03-14 01:42:00,21.0,12.0,30.00,NNW,333,18.0,35.0,68,0.00,,,0.00,,2013-03-14 05:42:00,
2013-03-14 01:53:00,21.0,13.0,29.99,NW,314,13.0,27.0,71,0.00,,,0.00,,2013-03-14 05:53:00,
2013-03-14 02:02:00,21.0,12.0,30.00,NW,315,16.0,30.0,69,0.00,,,0.00,,2013-03-14 06:02:00,
2013-03-14 02:12:00,21.0,12.0,30.00,NW,315,16.0,30.0,69,0.00,,,0.00,,2013-03-14 06:12:00,
2013-03-14 02:22:00,21.0,12.0,30.01,NW,314,19.0,26.0,69,0.00,,,0.00,,2013-03-14 06:22:00,
2013-03-14 02:33:00,21.0,13.0,30.01,WNW,301,13.0,27.0,70,0.00,,,0.00,,2013-03-14 06:33:00,
2013-03-14 02:42:00,21.0,13.0,30.01,WNW,301,13.0,27.0,70,0.00,,,0.00,,2013-03-14 06:42:00,
2013-03-14 02:52:00,21.0,13.0,30.02,NW,307,14.0,22.0,71,0.00,,,0.00,,2013-03-14 06:52:00,
2013-03-14 03:02:00,20.0,14.0,30.02,NNW,338,13.0,22.0,77,0.00,,,0.00,,2013-03-14 07:02:00,
2013-03-14 03:12:00,20.0,14.0,30.02,NNW,338,13.0,22.0,77,0.00,,,0.00,,2013-03-14 07:12:00,
2013-03-14 03:22:00,20.0,15.0,30.02,NW,318,12.0,20.0,80,0.00,,,0.00,,2013-03-14 07:22:00,
2013-03-14 03:32:00,20.0,14.0,30.02,NNW,339,9.0,16.0,76,0.00,,,0.00,,2013-03-14 07:32:00,
2013-03-14 03:43:00,20.0,14.0,30.02,NNW,339,9.0,16.0,76,0.00,,,0.00,,2013-03-14 07:43:00,
2013-03-14 03:52:00,20.0,14.0,30.03,NNW,344,12.0,17.0,77,0.00,,,0.00,,2013-03-14 07:52:00,
2013-03-14 04:02:00,19.0,12.0,30.03,North,349,10.0,20.0,75,0.00,,,0.00,,2013-03-14 08:02:00,
2013-03-14 04:12:00,19.0,12.0,30.03,North,349,10.0,20.0,75,0.00,,,0.00,,2013-03-14 08:12:00,
2013-03-14 04:22:00,19.0,13.0,30.03,NNW,335,9.0,18.0,76,0.00,,,0.00,,2013-03-14 08:22:00,
2013-03-14 04:32:00,19.0,13.0,30.03,NNW,340,9.0,14.0,77,0.00,,,0.00,,2013-03-14 08:32:00,
2013-03-14 04:42:00,19.0,13.0,30.03,NNW,340,9.0,14.0,77,0.00,,,0.00,,2013-03-14 08:42:00,
2013-03-14 04:52:00,19.0,13.0,30.04,NNW,344,5.0,13.0,78,0.00,,,0.00,,2013-03-14 08:52:00,
2013-03-14 05:02:00,19.0,14.0,30.03,NW,309,5.0,10.0,79,0.00,,,0.00,,2013-03-14 09:02:00,
2013-03-14 05:12:00,19.0,14.0,30.03,NW,309,5.0,10.0,79,0.00,,,0.00,,2013-03-14 09:12:00,
2013-03-14 05:22:00,19.0,14.0,30.03,NNW,346,5.0,13.0,80,0.00,,,0.00,,2013-03-14 09:22:00,
2013-03-14 05:32:00,19.0,14.0,30.03,NW,320,7.0,12.0,81,0.00,,,0.00,,2013-03-14 09:32:00,
2013-03-14 05:42:00,19.0,14.0,30.03,NW,320,7.0,12.0,81,0.00,,,0.00,,2013-03-14 09:42:00,
2013-03-14 05:52:00,19.0,14.0,30.04,NNW,338,3.0,8.0,81,0.00,,,0.00,,2013-03-14 09:52:00,
2013-03-14 06:02:00,19.0,14.0,30.04,NW,322,3.0,8.0,82,0.00,,,0.00,,2013-03-14 10:02:00,
2013-03-14 06:12:00,19.0,14.0,30.04,NW,322,3.0,8.0,82,0.00,,,0.00,,2013-03-14 10:12:00,
2013-03-14 06:22:00,19.0,14.0,30.05,NW,309,4.0,8.0,82,0.00,,,0.00,,2013-03-14 10:22:00,
2013-03-14 06:32:00,20.0,15.0,30.05,NW,311,5.0,9.0,81,0.00,,,0.00,,2013-03-14 10:32:00,
2013-03-14 06:42:00,20.0,15.0,30.05,NW,311,5.0,9.0,81,0.00,,,0.00,,2013-03-14 10:42:00,
2013-03-14 06:52:00,20.0,15.0,30.05,NW,315,3.0,7.0,82,0.00,,,0.00,,2013-03-14 10:52:00,
2013-03-14 07:02:00,20.0,15.0,30.05,NW,307,4.0,6.0,81,0.00,,,0.00,,2013-03-14 11:02:00,
2013-03-14 07:12:00,20.0,15.0,30.05,NW,307,4.0,6.0,81,0.00,,,0.00,,2013-03-14 11:12:00,
2013-03-14 07:22:00,20.0,15.0,30.06,West,278,5.0,7.0,81,0.00,,,0.00,,2013-03-14 11:22:00,
2013-03-14 07:33:00,20.0,15.0,30.06,WNW,303,4.0,7.0,81,0.00,,,0.00,,2013-03-14 11:33:00,
2013-03-14 07:42:00,20.0,15.0,30.06,WNW,303,4.0,7.0,81,0.00,,,0.00,,2013-03-14 11:42:00,
2013-03-14 07:53:00,21.0,16.0,30.06,West,267,9.0,12.0,79,0.00,,,0.00,,2013-03-14 11:53:00,
2013-03-14 08:02:00,21.0,15.0,30.06,NW,306,7.0,17.0,77,0.00,,,0.00,,2013-03-14 12:02:00,
2013-03-14 08:12:00,21.0,15.0,30.06,NW,306,7.0,17.0,77,0.00,,,0.00,,2013-03-14 12:12:00,
2013-03-14 08:22:00,21.0,14.0,30.06,WNW,300,6.0,16.0,75,0.00,,,0.00,,2013-03-14 12:22:00,
2013-03-14 08:33:00,22.0,14.0,30.06,WNW,297,8.0,18.0,70,0.00,,,0.00,,2013-03-14 12:33:00,
2013-03-14 08:42:00,22.0,14.0,30.06,WNW,297,8.0,18.0,70,0.00,,,0.00,,2013-03-14 12:42:00,
2013-03-14 08:52:00,23.0,14.0,30.07,WNW,284,12.0,22.0,68,0.00,,,0.00,,2013-03-14 12:52:00,
2013-03-14 09:02:00,23.0,13.0,30.07,NW,308,16.0,24.0,65,0.00,,,0.00,,2013-03-14 13:02:00,
2013-03-14 09:13:00,23.0,13.0,30.07,NW,308,16.0,24.0,65,0.00,,,0.00,,2013-03-14 13:13:00,
2013-03-14 09:22:00,23.0,13.0,30.07,WSW,249,15.0,27.0,64,0.00,,,0.00,,2013-03-14 13:22:00,
2013-03-14 09:32:00,23.0,13.0,30.07,WNW,301,13.0,24.0,64,0.00,,,0.00,,2013-03-14 13:32:00,
2013-03-14 09:43:00,23.0,13.0,30.07,WNW,301,13.0,24.0,64,0.00,,,0.00,,2013-03-14 13:43:00,
2013-03-14 09:52:00,24.0,13.0,30.08,NW,307,17.0,26.0,63,0.00,,,0.00,,2013-03-14 13:52:00,
2013-03-14 10:02:00,23.0,12.0,30.08,WNW,290,17.0,24.0,62,0.00,,,0.00,,2013-03-14 14:02:00,
2013-03-14 10:12:00,23.0,12.0,30.08,WNW,290,17.0,24.0,62,0.00,,,0.00,,2013-03-14 14:12:00,
2013-03-14 10:22:00,24.0,13.0,30.08,WNW,297,16.0,29.0,62,0.00,,,0.00,,2013-03-14 14:22:00,
2013-03-14 10:32:00,24.0,13.0,30.07,WNW,285,13.0,25.0,61,0.00,,,0.00,,2013-03-14 14:32:00,
2013-03-14 10:42:00,24.0,13.0,30.07,WNW,285,13.0,25.0,61,0.00,,,0.00,,2013-03-14 14:42:00,
2013-03-14 10:53:00,24.0,11.0,30.08,WNW,297,13.0,28.0,57,0.00,,,0.00,,2013-03-14 14:53:00,
2013-03-14 11:02:00,24.0,11.0,30.08,WNW,288,16.0,25.0,56,0.00,,,0.00,,2013-03-14 15:02:00,
2013-03-14 11:12:00,24.0,11.0,30.08,WNW,288,16.0,25.0,56,0.00,,,0.00,,2013-03-14 15:12:00,
2013-03-14 11:22:00,24.0,11.0,30.07,NNW,342,15.0,25.0,56,0.00,,,0.00,,2013-03-14 15:22:00,
2013-03-14 11:33:00,25.0,12.0,30.08,WNW,290,15.0,26.0,58,0.00,,,0.00,,2013-03-14 15:33:00,
2013-03-14 11:43:00,25.0,12.0,30.08,WNW,290,15.0,26.0,58,0.00,,,0.00,,2013-03-14 15:43:00,
2013-03-14 11:52:00,25.0,12.0,30.08,WNW,286,18.0,25.0,56,0.01,,,0.01,,2013-03-14 15:52:00,
2013-03-14 12:03:00,25.0,12.0,30.08,WNW,288,14.0,22.0,57,0.01,,,0.01,,2013-03-14 16:03:00,
2013-03-14 12:13:00,25.0,12.0,30.08,WNW,288,14.0,22.0,57,0.01,,,0.01,,2013-03-14 16:13:00,
2013-03-14 12:23:00,26.0,13.0,30.08,WNW,302,12.0,23.0,57,0.01,,,0.01,,2013-03-14 16:23:00,
2013-03-14 12:32:00,26.0,12.0,30.08,WNW,293,15.0,24.0,54,0.01,,,0.01,,2013-03-14 16:32:00,
2013-03-14 12:42:00,26.0,12.0,30.08,WNW,293,15.0,24.0,54,0.01,,,0.01,,2013-03-14 16:42:00,
2013-03-14 12:52:00,27.0,10.0,30.08,WNW,303,14.0,26.0,49,0.00,,,0.01,,2013-03-14 16:52:00,
2013-03-14 13:02:00,27.0,9.0,30.08,WNW,293,16.0,26.0,46,0.00,,,0.01,,2013-03-14 17:02:00,
2013-03-14 13:13:00,27.0,9.0,30.08,WNW,293,16.0,26.0,46,0.00,,,0.01,,2013-03-14 17:13:00,
2013-03-14 13:23:00,27.0,11.0,30.08,NW,318,13.0,27.0,50,0.00,,,0.01,,2013-03-14 17:23:00,
2013-03-14 13:33:00,28.0,9.0,30.08,WNW,288,14.0,25.0,44,0.00,,,0.01,,2013-03-14 17:33:00,
2013-03-14 13:42:00,28.0,9.0,30.08,WNW,288,14.0,25.0,44,0.00,,,0.01,,2013-03-14 17:42:00,
2013-03-14 13:53:00,28.0,6.0,30.08,WNW,297,19.0,31.0,38,0.00,,,0.01,,2013-03-14 17:53:00,
2013-03-14 14:03:00,29.0,10.0,30.07,WNW,285,14.0,24.0,44,0.00,,,0.01,,2013-03-14 18:03:00,
2013-03-14 14:12:00,29.0,10.0,30.07,WNW,285,14.0,24.0,44,0.00,,,0.01,,2013-03-14 18:12:00,
2013-03-14 14:23:00,29.0,7.0,30.07,West,280,15.0,30.0,39,0.00,,,0.01,,2013-03-14 18:23:00,
2013-03-14 14:33:00,29.0,7.0,30.07,WNW,286,15.0,29.0,38,0.00,,,0.01,,2013-03-14 18:33:00,
2013-03-14 14:43:00,29.0,7.0,30.07,WNW,286,15.0,29.0,38,0.00,,,0.01,,2013-03-14 18:43:00,
2013-03-14 14:53:00,29.0,7.0,30.07,West,260,13.0,29.0,38,0.00,,,0.01,,2013-03-14 18:53:00,
2013-03-14 15:03:00,29.0,7.0,30.07,West,276,18.0,29.0,38,0.00,,,0.01,,2013-03-14 19:03:00,
2013-03-14 15:12:00,29.0,7.0,30.07,West,276,18.0,29.0,38,0.00,,,0.01,,2013-03-14 19:12:00,
2013-03-14 15:23:00,29.0,6.0,30.06,West,267,19.0,32.0,37,0.00,,,0.01,,2013-03-14 19:23:00,
2013-03-14 15:32:00,29.0,7.0,30.06,WNW,299,17.0,29.0,38,0.00,,,0.01,,2013-03-14 19:32:00,
2013-03-14 15:42:00,29.0,7.0,30.06,WNW,299,17.0,29.0,38,0.00,,,0.01,,2013-03-14 19:42:00,
2013-03-14 15:52:00,30.0,8.0,30.06,NW,321,17.0,31.0,39,0.00,,,0.01,,2013-03-14 19:52:00,
2013-03-14 16:02:00,30.0,10.0,30.06,WNW,288,15.0,28.0,42,0.00,,,0.01,,2013-03-14 20:02:00,
2013-03-14 16:12:00,30.0,10.0,30.06,WNW,288,15.0,28.0,42,0.00,,,0.01,,2013-03-14 20:12:00,
2013-03-14 16:22:00,30.0,9.0,30.06,WNW,300,20.0,31.0,41,0.00,,,0.01,,2013-03-14 20:22:00,
2013-03-14 16:32:00,31.0,11.0,30.06,WNW,287,15.0,29.0,43,0.00,,,0.01,,2013-03-14 20:32:00,
2013-03-14 16:42:00,31.0,11.0,30.06,WNW,287,15.0,29.0,43,0.00,,,0.01,,2013-03-14 20:42:00,
2013-03-14 16:52:00,31.0,11.0,30.05,WNW,297,14.0,26.0,43,0.00,,,0.01,,2013-03-14 20:52:00,
2013-03-14 17:03:00,31.0,11.0,30.05,NW,311,15.0,25.0,43,0.00,,,0.01,,2013-03-14 21:03:00,
2013-03-14 17:13:00,31.0,11.0,30.05,NW,311,15.0,25.0,43,0.00,,,0.01,,2013-03-14 21:13:00,
2013-03-14 17:22:00,31.0,11.0,30.05,NW,316,16.0,24.0,42,0.00,,,0.01,,2013-03-14 21:22:00,
2013-03-14 17:33:00,31.0,11.0,30.05,WNW,298,16.0,27.0,42,0.00,,,0.01,,2013-03-14 21:33:00,
2013-03-14 17:43:00,31.0,11.0,30.05,WNW,298,16.0,27.0,42,0.00,,,0.01,,2013-03-14 21:43:00,
2013-03-14 17:53:00,31.0,12.0,30.05,West,259,15.0,24.0,45,0.00,,,0.01,,2013-03-14 21:53:00,
2013-03-14 18:03:00,31.0,12.0,30.05,WNW,284,15.0,30.0,44,0.00,,,0.01,,2013-03-14 22:03:00,
2013-03-14 18:13:00,31.0,12.0,30.05,WNW,284,15.0,30.0,44,0.00,,,0.01,,2013-03-14 22:13:00,
2013-03-14 18:23:00,31.0,11.0,30.05,West,264,20.0,27.0,43,0.00,,,0.01,,2013-03-14 22:23:00,
2013-03-14 18:33:00,31.0,13.0,30.05,WNW,293,13.0,24.0,46,0.00,,,0.01,,2013-03-14 22:33:00,
2013-03-14 18:42:00,31.0,13.0,30.05,WNW,293,13.0,24.0,46,0.00,,,0.01,,2013-03-14 22:42:00,
2013-03-14 18:53:00,30.0,11.0,30.05,NW,322,13.0,30.0,45,0.00,,,0.01,,2013-03-14 22:53:00,
2013-03-14 19:03:00,30.0,12.0,30.06,WSW,255,13.0,23.0,46,0.00,,,0.01,,2013-03-14 23:03:00,
2013-03-14 19:12:00,30.0,12.0,30.06,WSW,255,13.0,23.0,46,0.00,,,0.01,,2013-03-14 23:12:00,
2013-03-14 19:23:00,30.0,11.0,30.06,WNW,297,16.0,26.0,45,0.00,,,0.01,,2013-03-14 23:23:00,
2013-03-14 19:33:00,29.0,11.0,30.06,NW,312,12.0,21.0,46,0.00,,,0.01,,2013-03-14 23:33:00,
2013-03-14 19:42:00,29.0,11.0,30.06,NW,312,12.0,21.0,46,0.00,,,0.01,,2013-03-14 23:42:00,
2013-03-14 19:54:00,29.0,12.0,30.06,WNW,289,9.0,20.0,49,0.00,,,0.01,,2013-03-14 23:54:00,
2013-03-14 20:02:00,29.0,13.0,30.06,NW,304,13.0,21.0,50,0.00,,,0.01,,2013-03-15 00:02:00,
2013-03-14 20:12:00,28.0,12.0,30.06,WNW,298,9.0,17.0,51,0.00,,,0.01,,2013-03-15 00:12:00,
2013-03-14 20:23:00,28.0,12.0,30.06,WNW,298,9.0,17.0,51,0.00,,,0.01,,2013-03-15 00:23:00,
2013-03-14 20:32:00,28.0,13.0,30.06,WNW,303,10.0,16.0,53,0.00,,,0.01,,2013-03-15 00:32:00,
2013-03-14 20:42:00,28.0,13.0,30.06,WNW,303,10.0,16.0,53,0.00,,,0.01,,2013-03-15 00:42:00,
2013-03-14 20:52:00,28.0,14.0,30.07,West,280,9.0,18.0,54,0.00,,,0.01,,2013-03-15 00:52:00,
2013-03-14 21:02:00,28.0,14.0,30.07,WSW,257,8.0,16.0,54,0.00,,,0.01,,2013-03-15 01:02:00,
2013-03-14 21:12:00,28.0,14.0,30.07,WSW,257,8.0,16.0,54,0.00,,,0.01,,2013-03-15 01:12:00,
2013-03-14 21:22:00,27.0,13.0,30.06,WSW,253,8.0,12.0,56,0.00,,,0.01,,2013-03-15 01:22:00,
2013-03-14 21:32:00,27.0,15.0,30.07,WSW,246,6.0,12.0,59,0.00,,,0.01,,2013-03-15 01:32:00,
2013-03-14 21:42:00,27.0,15.0,30.07,WSW,246,6.0,12.0,59,0.00,,,0.01,,2013-03-15 01:42:00,
2013-03-14 21:52:00,27.0,15.0,30.07,WSW,257,6.0,13.0,60,0.00,,,0.01,,2013-03-15 01:52:00,
2013-03-14 22:03:00,27.0,14.0,30.07,West,267,8.0,19.0,58,0.00,,,0.01,,2013-03-15 02:03:00,
2013-03-14 22:12:00,27.0,14.0,30.07,West,267,8.0,19.0,58,0.00,,,0.01,,2013-03-15 02:12:00,
2013-03-14 22:22:00,27.0,15.0,30.08,West,271,5.0,12.0,61,0.00,,,0.01,,2013-03-15 02:22:00,
2013-03-14 22:32:00,26.0,15.0,30.08,WSW,257,6.0,9.0,63,0.00,,,0.01,,2013-03-15 02:32:00,
2013-03-14 22:42:00,26.0,15.0,30.08,WSW,257,6.0,9.0,63,0.00,,,0.01,,2013-03-15 02:42:00,
2013-03-14 22:52:00,26.0,16.0,30.07,West,269,4.0,9.0,64,0.00,,,0.01,,2013-03-15 02:52:00,
2013-03-14 23:02:00,26.0,16.0,30.07,WNW,283,5.0,7.0,64,0.00,,,0.01,,2013-03-15 03:02:00,
2013-03-14 23:12:00,26.0,16.0,30.07,WNW,283,5.0,7.0,64,0.00,,,0.01,,2013-03-15 03:12:00,
2013-03-14 23:22:00,26.0,15.0,30.06,West,264,6.0,10.0,63,0.00,,,0.01,,2013-03-15 03:22:00,
2013-03-14 23:33:00,26.0,16.0,30.05,WSW,243,6.0,7.0,64,0.00,,,0.01,,2013-03-15 03:33:00,
2013-03-14 23:43:00,26.0,16.0,30.05,WSW,243,6.0,7.0,64,0.00,,,0.01,,2013-03-15 03:43:00,
2013-03-14 23:53:00,26.0,15.0,30.05,WSW,243,7.0,10.0,63,0.00,,,0.01,,2013-03-15 03:53:00,